Starlink 4380

operational
NORAD ID: 53650 Int'l Des: 2022-105 Owner: SPXS Country: US Constellation: starlink
LEOCIRCULARRETROGRADESSO

Starlink 4380について

説明を読み込み中...

リアルタイム位置

3D地球を読み込み中...

次回通過

高度履歴

Altitude vs Time

uPlot chart will show altitude changes over time

軌道要素

1 53650U 22105C 25352.65864014 .00000652 00000-0 55303-4 0 9993
2 53650 97.6015 230.8766 0002417 45.5086 314.6336 15.01263197181071
Epoch: Dec 18, 2025 • Age: 16 hours

現在のステータス

高度 590.0 km
速度 7.56 km/s
衛星直下点 -67.61°S, 165.06°W
打ち上げ日 Aug 31, 2022
運用期間 3.3 years
タイプ internet

技術仕様

分類 Payload
質量 300.00 kg
乾燥質量 290.00 kg
総質量 300.00 kg
長さ 0.20 m
直径 2.80 m
スパン 9.00 m
形状 Box + pan
製造者 SPXS
バスタイプ Starlink
フェーズステータス In Orbit
所有者/国 SPXS/US

大規模コンステレーション

Loading constellations...